CAPE
0 0 0 2 14 7 2 0 0 0 0 4 0 8 0 0 0 0 418 124 156 66 228 78 161 129 80 93 124 278 346 702 912 911 960 1089 1190 1121 1359 1852 1391 1673 1950 1880 1798 1994 1792 1899 1823 1310 1788 1282 1694 2676 3119 3324 3442 2606 2936 3318 3161 2899 2961
0 0 0 1 0 0 2 0 0 0 0 0 4 3 18 0 0 1 376 365 119 297 204 243 92 36 64 55 29 35 86 327 342 276 369 901 706 1009 1226 1319 1609 1442 1681 1925 1788 1768 1752 1658 1583 1894 996 828 1044 1634 1930 2210 2550 2219 2395 2957 2734 2838 3082
0 0 0 0 0 0 0 0 1 0 3 0 0 0 9 6 0 1 564 299 321 396 265 182 123 89 54 24 72 30 20 61 172 310 347 358 875 578 599 1018 1292 1641 1761 2134 2584 2234 2153 2130 1818 1463 1092 1245 1038 1619 2074 1624 2705 2766 2613 2992 2738 3008 3134
0 0 0 0 0 0 0 0 0 0 0 0 0 0 0 0 3 13 388 452 352 387 354 300 77 78 6 2 12 20 9 26 65 144 377 345 469 670 774 1062 978 1605 1678 1726 2411 2511 2001 2137 1970 1619 1137 921 1367 1922 2118 2133 2064 3052 3063 3251 2683 2369 2725
0 0 0 0 0 0 0 0 0 0 0 0 0 0 0 0 34 22 255 338 104 344 410 418 40 6 6 26 51 39 27 29 46 58 285 274 243 406 444 478 844 954 1414 1840 1377 2173 2498 1835 1570 1208 1026 1456 1442 1775 2151 2177 2379 2848 2746 2793 2838 3026 3031
0 0 0 0 0 0 0 0 0 0 0 0 0 1 0 0 0 7 180 470 448 84 276 170 48 16 13 30 73 37 10 9 18 41 225 224 195 309 398 442 449 607 836 1285 1376 1320 1891 2052 1623 1257 1588 2138 1817 1426 1413 1379 1970 2151 2498 2738 2584 2450 3494
0 0 0 0 0 0 0 0 0 0 0 0 0 0 5 4 4 9 642 594 618 326 279 153 79 19 19 42 28 26 5 14 9 21 174 287 244 156 213 382 402 574 674 687 868 957 1096 1274 1454 1536 1788 2029 1981 2273 2124 2202 2278 2400 2271 1836 2066 2591 2779
0 0 0 0 0 0 0 0 0 0 0 0 1 7 10 2 14 381 362 648 434 253 262 126 34 10 27 19 19 2 3 2 8 17 132 358 223 170 162 174 217 472 532 550 549 588 773 967 1320 1544 1780 2137 1895 2051 1973 1682 1921 2318 2293 2198 1908 1843 1967
0 0 0 0 0 0 0 0 0 0 0 5 2 3 36 4 5 95 302 521 506 217 133 82 50 39 57 15 4 7 2 10 10 2 89 214 256 236 220 196 274 346 402 519 694 677 738 916 980 1059 1200 1396 1465 2137 2022 1664 1885 1828 1591 1638 1745 1814 1625
23 0 0 0 0 0 0 0 0 0 0 0 0 0 0 0 7 225 188 494 345 146 150 26 21 29 46 21 1 6 0 0 9 15 122 187 272 346 367 344 277 183 421 543 753 762 818 893 926 904 946 846 1010 1548 1808 1603 1589 1756 1678 1137 1648 1346 1300
0 2 4 0 0 0 0 0 0 0 0 0 0 0 5 1 22 346 498 458 273 189 95 53 35 9 19 4 2 1 0 4 13 58 112 221 323 372 410 380 432 419 521 657 775 799 823 912 870 914 928 947 911 972 927 1246 1524 1130 1697 1428 1615 1487 1402
0 0 0 0 0 0 0 0 0 0 0 0 0 0 0 66 0 568 745 442 320 187 144 92 27 11 5 1 2 0 0 0 8 2 0 138 213 386 428 498 429 466 498 608 637 725 764 772 870 876 860 893 912 1006 961 897 858 767 682 691 845 1496 1360
0 0 0 0 0 0 0 0 0 0 0 0 0 0 0 3 3 416 697 563 292 225 158 118 11 3 3 2 2 0 1 0 1 0 0 36 154 173 322 392 578 548 541 569 644 682 707 707 676 773 802 872 769 817 864 828 843 765 744 668 808 889 1138
2 0 1 1 0 0 0 0 0 0 0 0 0 0 0 1 383 706 660 394 547 283 217 95 25 1 2 2 0 0 0 0 4 0 0 0 78 264 299 429 562 720 651 630 649 696 698 691 773 796 784 781 715 629 788 830 826 783 761 789 734 910 910
0 0 0 0 0 0 0 0 0 0 0 0 0 0 0 4 574 146 421 544 489 325 194 48 1 1 0 0 3 3 0 0 0 0 0 0 38 192 328 331 592 516 691 720 735 734 734 723 766 779 801 782 769 795 519 403 493 636 675 703 698 710 700
1 2 1 0 0 0 0 0 0 0 0 0 0 0 0 0 103 118 435 363 285 393 212 0 0 0 0 0 0 2 2 0 0 0 0 0 137 209 223 228 197 353 466 466 586 741 711 752 781 780 798 807 805 744 711 685 534 419 436 462 419 498 583
4 0 2 0 0 0 0 0 0 0 0 0 0 0 0 0 15 344 430 177 384 263 119 16 0 0 0 0 0 0 0 1 0 0 0 20 147 198 183 231 215 231 331 428 408 502 651 795 808 782 733 773 820 814 792 775 667 618 546 503 489 521 519
7 1 0 4 0 0 0 10 19 0 0 0 0 0 0 2 3 184 344 346 245 168 84 8 0 3 0 0 0 0 0 0 0 0 0 0 0 0 82 124 189 202 354 422 316 383 381 428 503 545 589 584 577 621 617 710 735 584 662 677 644 626 588
0 2 10 2 0 0 35 0 2 18 3 0 3 13 12 0 119 214 284 192 177 137 71 21 7 0 0 0 2 1 1 1 0 0 0 0 0 0 0 0 30 85 121 215 325 428 364 295 380 403 380 360 433 482 497 546 563 556 515 767 825 755 676
0 0 2 0 0 231 5 0 0 0 4 4 0 4 1 6 132 286 368 310 245 144 70 7 0 0 0 0 0 0 0 0 0 0 0 0 0 0 0 0 0 0 0 0 132 157 199 247 293 345 362 357 412 422 429 400 404 418 457 476 608 691 769
2 1 3 1 121 1 38 0 22 0 5 7 8 10 10 0 69 182 208 231 134 94 52 16 7 2 0 0 0 0 0 0 0 0 0 0 0 0 0 0 0 0 0 0 0 0 60 114 128 160 179 196 229 275 319 312 356 412 425 435 415 430 488
0 0 9 3 31 0 0 34 11 0 0 0 0 1 7 0 29 101 189 174 59 76 32 30 5 0 0 0 0 0 0 0 0 0 0 0 0 0 0 0 0 0 0 0 0 0 0 0 12 71 88 103 129 148 164 172 191 213 288 326 389 442 435
0 0 0 4 0 47 46 12 8 5 2 0 0 0 29 0 72 144 162 149 57 6 11 8 2 3 1 4 1 0 0 0 0 0 0 0 0 0 0 0 0 0 0 0 0 0 0 0 0 0 0 0 46 82 87 90 88 101 104 110 132 136 174
0 0 0 2 9 248 139 25 0 0 0 0 0 0 0 10 14 8 65 83 18 5 2 14 0 0 1 0 1 0 0 0 0 0 0 0 0 0 0 0 0 0 0 0 0 0 0 0 0 0 0 0 0 0 0 0 0 28 34 0 0 0 0
0 0 0 5 325 234 59 0 0 0 0 0 0 0 98 21 24 11 8 19 0 3 0 0 0 11 0 0 0 0 0 0 0 0 0 0 0 0 0 0 0 0 0 0 0 0 0 0 0 0 0 0 0 0 0 0 0 0 0 0 0 0 0
0 0 0 0 380 242 66 0 0 0 0 0 6 217 43 13 4 0 0 0 4 1 0 0 2 2 0 0 0 0 0 0 0 0 0 0 0 0 0 0 0 0 0 0 0 0 0 0 0 0 0 0 0 0 0 0 0 0 0 0 0 0 0
0 0 0 0 3 251 6 0 0 0 0 248 169 47 10 1 0 0 0 0 0 0 1 0 1 0 0 0 0 0 0 0 0 0 0 0 0 0 0 0 0 0 0 0 0 0 0 0 0 0 0 0 0 0 0 0 0 0 0 0 0 0 0
0 0 0 62 320 75 17 0 1 0 145 88 100 11 1 0 0 1 0 0 0 0 0 0 0 0 0 0 0 0 0 0 0 0 0 0 0 0 0 0 0 0 0 0 0 0 0 0 0 0 0 0 0 0 0 0 0 0 0 0 0 0 0
20 98 92 0 125 130 27 20 4 68 55 110 32 19 0 0 0 0 0 0 0 0 0 0 0 0 0 0 0 0 0 0 0 0 0 0 0 0 0 0 0 0 0 0 0 0 0 0 0 0 0 0 0 0 0 0 0 0 0 0 0 0 0
4 4 87 244 143 159 27 35 131 75 100 19 0 0 0 0 0 0 0 0 0 0 0 0 0 0 0 0 0 0 0 0 0 0 0 0 0 0 0 0 0 0 0 0 0 0 0 0 0 0 0 0 0 0 0 0 0 0 0 0 0 0 0
0 3 46 110 131 46 51 44 109 90 16 0 0 0 0 0 0 0 0 0 0 0 0 0 0 0 0 0 0 0 0 0 0 0 0 0 0 0 0 0 0 0 0 0 0 0 0 0 0 0 0 0 0 0 0 0 0 0 0 0 0 0 1
0 0 13 49 124 47 31 35 70 41 0 0 0 0 0 0 0 0 0 0 0 0 0 0 0 0 0 0 0 0 0 0 0 0 0 0 0 0 0 0 0 0 0 0 0 0 0 0 0 0 0 0 0 0 0 0 0 0 0 0 0 0 0
44 0 0 26 37 96 45 44 28 46 6 0 0 0 0 0 0 0 0 0 0 0 0 0 0 0 0 0 0 0 0 0 0 0 0 0 0 0 0 0 0 0 0 0 0 0 0 0 0 0 0 0 0 0 0 0 0 0 0 0 0 0 0
52 233 348 318 7 53 54 9 37 31 11 15 30 1 0 0 0 0 0 0 0 0 0 0 0 0 0 0 0 0 0 0 0 0 0 0 0 0 0 0 0 0 0 0 0 0 0 0 0 0 0 0 0 0 0 0 0 0 0 0 0 0 0
70 732 221 356 218 247 93 42 29 1 7 8 5 41 4 0 0 0 0 0 0 0 0 0 0 0 0 0 0 0 0 0 0 0 0 0 0 0 0 0 0 0 0 0 0 0 0 0 0 0 0 0 0 0 0 0 0 0 0 0 0 0 0
289 328 249 224 276 102 325 161 160 183 81 34 5 0 90 25 1 0 1 2 4 2 0 0 0 0 0 0 0 0 0 0 0 0 0 0 0 0 0 0 0 0 0 0 0 0 0 0 0 0 0 0 0 0 0 0 0 0 0 0 0 0 0
298 250 242 147 151 134 118 288 65 179 226 129 29 16 1 10 7 2 4 5 4 6 5 8 5 4 1 0 0 0 0 0 0 0 0 0 0 0 0 0 0 0 0 0 0 0 0 0 1 0 0 0 0 0 0 0 0 0 0 0 0 0 0
Wind_Speed
nan nan nan nan nan nan nan nan nan nan nan nan nan nan nan nan nan nan 30 34 43 nan 37 nan 36 34 nan nan 37 35 37 33 26 24 22 22 20 18 18 18 17 15 10 9 12 16 18 24 27 27 30 28 23 21 22 22 19 14 10 10 11 12 15
nan nan nan nan nan nan nan nan nan nan nan nan nan nan nan nan nan nan 31 39 36 36 38 35 nan nan nan nan nan nan nan 33 30 28 31 25 20 19 16 16 15 9 7 8 12 14 18 23 26 25 30 26 23 22 20 20 15 9 7 9 10 11 13
nan nan nan nan nan nan nan nan nan nan nan nan nan nan nan nan nan nan 31 37 32 35 42 40 43 nan nan nan nan nan nan nan 31 27 32 30 30 26 22 17 10 7 9 11 15 19 21 24 26 19 23 22 18 20 29 21 12 8 9 10 9 11 11
nan nan nan nan nan nan nan nan nan nan nan nan nan nan nan nan nan nan 30 27 34 39 37 40 nan nan nan nan nan nan nan nan nan 28 29 29 32 30 30 27 14 7 8 11 20 19 18 21 22 24 22 17 17 21 24 18 14 16 16 11 14 12 10
nan nan nan nan nan nan nan nan nan nan nan nan nan nan nan nan nan nan 31 33 39 41 40 42 nan nan nan nan nan nan nan nan nan nan 30 29 31 36 31 34 30 19 13 15 17 16 18 20 25 27 16 9 15 22 22 20 17 19 17 16 18 18 15
nan nan nan nan nan nan nan nan nan nan nan nan nan nan nan nan nan nan 19 40 40 nan 40 42 nan nan nan nan nan nan nan nan nan nan 29 29 27 32 35 34 33 28 25 20 17 20 17 20 25 28 21 13 12 16 18 18 18 17 18 21 20 15 12
nan nan nan nan nan nan nan nan nan nan nan nan nan nan nan nan nan nan 31 38 39 35 38 41 nan nan nan nan nan nan nan nan nan nan 32 32 32 37 35 33 33 31 27 26 26 27 28 23 23 24 23 17 15 17 20 22 22 22 20 19 14 16 16
nan nan nan nan nan nan nan nan nan nan nan nan nan nan nan nan nan 24 30 34 35 32 36 42 nan nan nan nan nan nan nan nan nan nan 37 37 36 37 38 35 35 32 30 27 27 29 30 30 29 25 21 21 18 15 14 19 23 23 23 21 19 17 16
nan nan nan nan nan nan nan nan nan nan nan nan nan nan nan nan nan nan 36 36 35 32 36 nan nan nan nan nan nan nan nan nan nan nan nan 38 37 36 35 36 36 35 34 32 31 32 31 32 32 30 27 25 21 16 12 15 22 23 23 25 19 17 18
nan nan nan nan nan nan nan nan nan nan nan nan nan nan nan nan nan 43 42 44 40 36 35 nan nan nan nan nan nan nan nan nan nan nan 39 39 39 38 38 38 37 39 37 35 35 34 30 31 32 32 32 29 25 21 18 15 17 19 21 19 17 18 21
nan nan nan nan nan nan nan nan nan nan nan nan nan nan nan nan nan 39 44 43 39 36 nan nan nan nan nan nan nan nan nan nan nan nan 38 40 41 42 42 41 40 39 39 39 38 37 37 35 33 31 32 31 27 24 22 15 12 15 18 19 22 21 20
nan nan nan nan nan nan nan nan nan nan nan nan nan nan nan nan nan 41 40 43 41 38 35 nan nan nan nan nan nan nan nan nan nan nan nan 41 43 44 44 44 44 43 41 40 39 39 40 39 35 33 32 31 29 27 27 24 20 18 20 25 25 23 20
nan nan nan nan nan nan nan nan nan nan nan nan nan nan nan nan nan 42 37 38 42 40 39 39 nan nan nan nan nan nan nan nan nan nan nan nan 45 46 47 47 46 45 44 41 41 41 41 40 40 36 32 31 30 28 27 28 26 20 18 22 23 23 21
nan nan nan nan nan nan nan nan nan nan nan nan nan nan nan nan 38 43 38 39 44 43 43 nan nan nan nan nan nan nan nan nan nan nan nan nan nan 48 50 50 50 47 46 45 43 43 42 42 41 38 35 33 32 32 30 30 28 24 20 19 16 18 19
nan nan nan nan nan nan nan nan nan nan nan nan nan nan nan nan 49 45 45 46 48 46 44 nan nan nan nan nan nan nan nan nan nan nan nan nan nan 49 50 51 52 52 50 48 46 45 45 45 43 40 38 35 34 33 33 31 29 27 24 21 17 20 20
nan nan nan nan nan nan nan nan nan nan nan nan nan nan nan nan 48 50 50 50 48 44 47 nan nan nan nan nan nan nan nan nan nan nan nan nan 48 49 50 51 52 53 53 51 49 48 47 47 46 43 40 40 37 36 34 34 33 31 28 25 25 25 25
nan nan nan nan nan nan nan nan nan nan nan nan nan nan nan nan nan 50 45 48 48 49 51 nan nan nan nan nan nan nan nan nan nan nan nan nan 48 49 49 51 52 54 54 53 50 49 47 46 46 46 44 42 39 38 36 36 37 34 33 32 30 31 30
nan nan nan nan nan nan nan nan nan nan nan nan nan nan nan nan nan 50 49 50 47 48 nan nan nan nan nan nan nan nan nan nan nan nan nan nan nan nan nan 52 53 53 53 53 51 50 49 48 49 47 45 45 42 41 40 38 38 36 36 37 35 35 35
nan nan nan nan nan nan nan nan nan nan nan nan nan nan nan nan 50 58 57 51 45 45 nan nan nan nan nan nan nan nan nan nan nan nan nan nan nan nan nan nan nan nan 54 54 53 51 50 49 49 48 47 46 45 44 44 43 41 39 39 42 41 40 39
nan nan nan nan nan 41 nan nan nan nan nan nan nan nan nan nan 44 43 46 47 46 44 nan nan nan nan nan nan nan nan nan nan nan nan nan nan nan nan nan nan nan nan nan nan 55 52 50 50 52 51 49 48 48 47 47 47 44 42 42 45 46 44 43
nan nan nan nan 31 nan nan nan nan nan nan nan nan nan nan nan nan 39 41 42 42 nan nan nan nan nan nan nan nan nan nan nan nan nan nan nan nan nan nan nan nan nan nan nan nan nan nan 54 54 52 50 51 49 49 49 48 46 44 46 47 47 46 45
nan nan nan nan nan nan nan nan nan nan nan nan nan nan nan nan nan 42 40 39 nan nan nan nan nan nan nan nan nan nan nan nan nan nan nan nan nan nan nan nan nan nan nan nan nan nan nan nan nan nan nan 53 51 52 52 50 50 49 50 50 48 47 46
nan nan nan nan nan nan nan nan nan nan nan nan nan nan nan nan nan 38 39 39 nan nan nan nan nan nan nan nan nan nan nan nan nan nan nan nan nan nan nan nan nan nan nan nan nan nan nan nan nan nan nan nan nan nan nan nan nan 52 52 52 50 49 48
nan nan nan nan nan 34 34 nan nan nan nan nan nan nan nan nan nan nan nan nan nan nan nan nan nan nan nan nan nan nan nan nan nan nan nan nan nan nan nan nan nan nan nan nan nan nan nan nan nan nan nan nan nan nan nan nan nan nan nan nan nan nan nan
nan nan nan nan 36 38 nan nan nan nan nan nan nan nan nan nan nan nan nan nan nan nan nan nan nan nan nan nan nan nan nan nan nan nan nan nan nan nan nan nan nan nan nan nan nan nan nan nan nan nan nan nan nan nan nan nan nan nan nan nan nan nan nan
nan nan nan nan 37 35 nan nan nan nan nan nan nan 42 nan nan nan nan nan nan nan nan nan nan nan nan nan nan nan nan nan nan nan nan nan nan nan nan nan nan nan nan nan nan nan nan nan nan nan nan nan nan nan nan nan nan nan nan nan nan nan nan nan
nan nan nan nan nan 33 nan nan nan nan nan 36 38 nan nan nan nan nan nan nan nan nan nan nan nan nan nan nan nan nan nan nan nan nan nan nan nan nan nan nan nan nan nan nan nan nan nan nan nan nan nan nan nan nan nan nan nan nan nan nan nan nan nan
nan nan nan nan 41 nan nan nan nan nan 41 nan 36 nan nan nan nan nan nan nan nan nan nan nan nan nan nan nan nan nan nan nan nan nan nan nan nan nan nan nan nan nan nan nan nan nan nan nan nan nan nan nan nan nan nan nan nan nan nan nan nan nan nan
nan nan nan nan 29 37 nan nan nan nan nan 39 nan nan nan nan nan nan nan nan nan nan nan nan nan nan nan nan nan nan nan nan nan nan nan nan nan nan nan nan nan nan nan nan nan nan nan nan nan nan nan nan nan nan nan nan nan nan nan nan nan nan nan
nan nan nan 34 30 32 nan nan 43 nan 43 nan nan nan nan nan nan nan nan nan nan nan nan nan nan nan nan nan nan nan nan nan nan nan nan nan nan nan nan nan nan nan nan nan nan nan nan nan nan nan nan nan nan nan nan nan nan nan nan nan nan nan nan
nan nan nan 28 32 nan nan nan 38 nan nan nan nan nan nan nan nan nan nan nan nan nan nan nan nan nan nan nan nan nan nan nan nan nan nan nan nan nan nan nan nan nan nan nan nan nan nan nan nan nan nan nan nan nan nan nan nan nan nan nan nan nan nan
nan nan nan nan 32 nan nan nan nan nan nan nan nan nan nan nan nan nan nan nan nan nan nan nan nan nan nan nan nan nan nan nan nan nan nan nan nan nan nan nan nan nan nan nan nan nan nan nan nan nan nan nan nan nan nan nan nan nan nan nan nan nan nan
nan nan nan nan nan nan nan nan nan nan nan nan nan nan nan nan nan nan nan nan nan nan nan nan nan nan nan nan nan nan nan nan nan nan nan nan nan nan nan nan nan nan nan nan nan nan nan nan nan nan nan nan nan nan nan nan nan nan nan nan nan nan nan
nan 31 33 35 nan nan nan nan nan nan nan nan nan nan nan nan nan nan nan nan nan nan nan nan nan nan nan nan nan nan nan nan nan nan nan nan nan nan nan nan nan nan nan nan nan nan nan nan nan nan nan nan nan nan nan nan nan nan nan nan nan nan nan
nan 34 28 37 34 34 nan nan nan nan nan nan nan nan nan nan nan nan nan nan nan nan nan nan nan nan nan nan nan nan nan nan nan nan nan nan nan nan nan nan nan nan nan nan nan nan nan nan nan nan nan nan nan nan nan nan nan nan nan nan nan nan nan
24 25 29 36 37 33 33 37 37 36 nan nan nan nan nan nan nan nan nan nan nan nan nan nan nan nan nan nan nan nan nan nan nan nan nan nan nan nan nan nan nan nan nan nan nan nan nan nan nan nan nan nan nan nan nan nan nan nan nan nan nan nan nan
29 30 32 33 32 30 30 29 nan 33 34 33 nan nan nan nan nan nan nan nan nan nan nan nan nan nan nan nan nan nan nan nan nan nan nan nan nan nan nan nan nan nan nan nan nan nan nan nan nan nan nan nan nan nan nan nan nan nan nan nan nan nan nan
Wind_Direction
nan nan nan nan nan nan nan nan nan nan nan nan nan nan nan nan nan nan 233 236 241 nan 256 nan 256 255 nan nan 259 262 264 271 266 247 239 239 236 242 248 246 249 249 241 262 259 257 252 242 241 238 226 213 222 240 244 233 229 233 266 268 272 262 254
nan nan nan nan nan nan nan nan nan nan nan nan nan nan nan nan nan nan 255 258 256 257 254 260 nan nan nan nan nan nan nan 269 273 260 249 250 237 230 230 232 234 257 254 248 256 261 265 262 253 252 249 242 239 227 236 248 240 243 255 274 273 269 260
nan nan nan nan nan nan nan nan nan nan nan nan nan nan nan nan nan nan 258 274 267 262 260 266 269 nan nan nan nan nan nan nan 257 261 248 235 264 263 246 251 238 225 237 244 247 245 248 260 267 256 254 251 253 246 257 267 270 250 278 265 257 253 256
nan nan nan nan nan nan nan nan nan nan nan nan nan nan nan nan nan nan 245 253 245 244 256 265 nan nan nan nan nan nan nan nan nan 255 250 239 261 260 255 265 270 233 225 244 242 249 267 278 273 251 246 245 244 244 249 257 258 259 256 247 251 236 231
nan nan nan nan nan nan nan nan nan nan nan nan nan nan nan nan nan nan 246 244 235 227 239 250 nan nan nan nan nan nan nan nan nan nan 241 241 246 259 256 256 257 258 256 246 257 261 263 281 272 267 284 282 262 254 250 248 252 250 257 250 237 226 215
nan nan nan nan nan nan nan nan nan nan nan nan nan nan nan nan nan nan 242 253 247 nan 247 255 nan nan nan nan nan nan nan nan nan nan 242 243 251 260 257 248 244 247 252 255 240 234 248 273 270 270 280 290 281 264 251 256 259 249 251 240 227 233 244
nan nan nan nan nan nan nan nan nan nan nan nan nan nan nan nan nan nan 239 258 250 245 251 254 nan nan nan nan nan nan nan nan nan nan 244 239 232 239 247 252 248 245 244 249 258 253 251 259 273 266 271 284 270 247 237 239 254 258 252 252 245 239 233
nan nan nan nan nan nan nan nan nan nan nan nan nan nan nan nan nan 234 247 244 252 253 253 251 nan nan nan nan nan nan nan nan nan nan 243 239 238 238 240 244 248 245 244 247 247 247 251 253 258 270 276 274 273 268 251 238 239 243 240 231 231 233 232
nan nan nan nan nan nan nan nan nan nan nan nan nan nan nan nan nan nan 240 243 250 259 255 nan nan nan nan nan nan nan nan nan nan nan nan 244 244 246 247 250 251 249 249 248 246 241 240 250 253 257 268 264 260 266 274 248 236 237 232 226 216 211 218
nan nan nan nan nan nan nan nan nan nan nan nan nan nan nan nan nan 224 236 239 245 251 254 nan nan nan nan nan nan nan nan nan nan nan 249 249 248 248 250 250 250 249 250 251 252 251 244 247 252 256 258 259 255 250 259 264 253 243 232 226 223 212 211
nan nan nan nan nan nan nan nan nan nan nan nan nan nan nan nan nan 226 232 245 253 257 nan nan nan nan nan nan nan nan nan nan nan nan 247 248 246 247 249 249 248 249 250 250 252 255 255 248 251 254 256 258 255 247 241 243 258 246 238 223 216 213 216
nan nan nan nan nan nan nan nan nan nan nan nan nan nan nan nan nan 235 233 244 252 260 258 nan nan nan nan nan nan nan nan nan nan nan nan 246 247 247 246 247 249 249 248 249 251 253 255 257 248 248 250 252 253 250 245 238 234 229 218 219 219 217 212
nan nan nan nan nan nan nan nan nan nan nan nan nan nan nan nan nan 232 240 234 240 254 256 255 nan nan nan nan nan nan nan nan nan nan nan nan 243 244 245 245 245 246 246 246 247 248 252 254 256 251 244 246 252 252 248 246 246 232 213 210 212 216 220
nan nan nan nan nan nan nan nan nan nan nan nan nan nan nan nan 233 249 246 240 238 246 253 nan nan nan nan nan nan nan nan nan nan nan nan nan nan 241 242 243 244 245 246 245 245 245 246 249 249 249 248 244 245 249 248 247 248 248 240 226 215 223 223
nan nan nan nan nan nan nan nan nan nan nan nan nan nan nan nan 242 238 243 248 244 241 247 nan nan nan nan nan nan nan nan nan nan nan nan nan nan 238 239 242 243 244 244 243 244 244 244 245 246 247 245 243 243 241 244 248 247 244 242 250 243 232 229
nan nan nan nan nan nan nan nan nan nan nan nan nan nan nan nan 235 240 247 244 245 242 253 nan nan nan nan nan nan nan nan nan nan nan nan nan 234 236 237 237 239 242 243 242 242 242 242 243 245 246 247 246 245 244 243 241 243 243 243 243 246 239 233
nan nan nan nan nan nan nan nan nan nan nan nan nan nan nan nan nan 246 245 245 247 253 252 nan nan nan nan nan nan nan nan nan nan nan nan nan 234 236 236 236 237 238 240 241 240 240 241 243 244 243 246 250 250 251 251 250 248 245 245 246 245 243 239
nan nan nan nan nan nan nan nan nan nan nan nan nan nan nan nan nan 235 243 248 246 252 nan nan nan nan nan nan nan nan nan nan nan nan nan nan nan nan nan 236 237 237 239 239 239 238 239 240 241 242 241 245 248 250 253 254 256 255 252 252 249 247 245
nan nan nan nan nan nan nan nan nan nan nan nan nan nan nan nan 236 248 247 252 256 252 nan nan nan nan nan nan nan nan nan nan nan nan nan nan nan nan nan nan nan nan 237 238 239 239 239 239 240 239 239 239 243 246 248 247 247 251 255 257 253 250 248
nan nan nan nan nan 233 nan nan nan nan nan nan nan nan nan nan 239 247 255 255 253 254 nan nan nan nan nan nan nan nan nan nan nan nan nan nan nan nan nan nan nan nan nan nan 236 237 240 242 242 240 239 239 241 243 245 247 246 245 251 255 256 254 252
nan nan nan nan 238 nan nan nan nan nan nan nan nan nan nan nan nan 241 247 249 251 nan nan nan nan nan nan nan nan nan nan nan nan nan nan nan nan nan nan nan nan nan nan nan nan nan nan 242 242 240 241 242 241 243 244 245 250 249 248 250 252 255 257
nan nan nan nan nan nan nan nan nan nan nan nan nan nan nan nan nan 244 246 248 nan nan nan nan nan nan nan nan nan nan nan nan nan nan nan nan nan nan nan nan nan nan nan nan nan nan nan nan nan nan nan 244 242 244 243 242 245 249 250 250 250 252 255
nan nan nan nan nan nan nan nan nan nan nan nan nan nan nan nan nan 247 248 249 nan nan nan nan nan nan nan nan nan nan nan nan nan nan nan nan nan nan nan nan nan nan nan nan nan nan nan nan nan nan nan nan nan nan nan nan nan 245 249 251 250 251 251
nan nan nan nan nan 246 242 nan nan nan nan nan nan nan nan nan nan nan nan nan nan nan nan nan nan nan nan nan nan nan nan nan nan nan nan nan nan nan nan nan nan nan nan nan nan nan nan nan nan nan nan nan nan nan nan nan nan nan nan nan nan nan nan
nan nan nan nan 247 245 nan nan nan nan nan nan nan nan nan nan nan nan nan nan nan nan nan nan nan nan nan nan nan nan nan nan nan nan nan nan nan nan nan nan nan nan nan nan nan nan nan nan nan nan nan nan nan nan nan nan nan nan nan nan nan nan nan
nan nan nan nan 243 247 nan nan nan nan nan nan nan 243 nan nan nan nan nan nan nan nan nan nan nan nan nan nan nan nan nan nan nan nan nan nan nan nan nan nan nan nan nan nan nan nan nan nan nan nan nan nan nan nan nan nan nan nan nan nan nan nan nan
nan nan nan nan nan 247 nan nan nan nan nan 244 250 nan nan nan nan nan nan nan nan nan nan nan nan nan nan nan nan nan nan nan nan nan nan nan nan nan nan nan nan nan nan nan nan nan nan nan nan nan nan nan nan nan nan nan nan nan nan nan nan nan nan
nan nan nan nan 238 nan nan nan nan nan 248 nan 252 nan nan nan nan nan nan nan nan nan nan nan nan nan nan nan nan nan nan nan nan nan nan nan nan nan nan nan nan nan nan nan nan nan nan nan nan nan nan nan nan nan nan nan nan nan nan nan nan nan nan
nan nan nan nan 253 253 nan nan nan nan nan 253 nan nan nan nan nan nan nan nan nan nan nan nan nan nan nan nan nan nan nan nan nan nan nan nan nan nan nan nan nan nan nan nan nan nan nan nan nan nan nan nan nan nan nan nan nan nan nan nan nan nan nan
nan nan nan 254 260 258 nan nan 251 nan 253 nan nan nan nan nan nan nan nan nan nan nan nan nan nan nan nan nan nan nan nan nan nan nan nan nan nan nan nan nan nan nan nan nan nan nan nan nan nan nan nan nan nan nan nan nan nan nan nan nan nan nan nan
nan nan nan 265 260 nan nan nan 258 nan nan nan nan nan nan nan nan nan nan nan nan nan nan nan nan nan nan nan nan nan nan nan nan nan nan nan nan nan nan nan nan nan nan nan nan nan nan nan nan nan nan nan nan nan nan nan nan nan nan nan nan nan nan
nan nan nan nan 259 nan nan nan nan nan nan nan nan nan nan nan nan nan nan nan nan nan nan nan nan nan nan nan nan nan nan nan nan nan nan nan nan nan nan nan nan nan nan nan nan nan nan nan nan nan nan nan nan nan nan nan nan nan nan nan nan nan nan
nan nan nan nan nan nan nan nan nan nan nan nan nan nan nan nan nan nan nan nan nan nan nan nan nan nan nan nan nan nan nan nan nan nan nan nan nan nan nan nan nan nan nan nan nan nan nan nan nan nan nan nan nan nan nan nan nan nan nan nan nan nan nan
nan 249 238 233 nan nan nan nan nan nan nan nan nan nan nan nan nan nan nan nan nan nan nan nan nan nan nan nan nan nan nan nan nan nan nan nan nan nan nan nan nan nan nan nan nan nan nan nan nan nan nan nan nan nan nan nan nan nan nan nan nan nan nan
nan 257 254 243 240 243 nan nan nan nan nan nan nan nan nan nan nan nan nan nan nan nan nan nan nan nan nan nan nan nan nan nan nan nan nan nan nan nan nan nan nan nan nan nan nan nan nan nan nan nan nan nan nan nan nan nan nan nan nan nan nan nan nan
246 249 257 255 246 243 243 241 240 245 nan nan nan nan nan nan nan nan nan nan nan nan nan nan nan nan nan nan nan nan nan nan nan nan nan nan nan nan nan nan nan nan nan nan nan nan nan nan nan nan nan nan nan nan nan nan nan nan nan nan nan nan nan
254 251 252 256 256 250 246 245 nan 241 240 245 nan nan nan nan nan nan nan nan nan nan nan nan nan nan nan nan nan nan nan nan nan nan nan nan nan nan nan nan nan nan nan nan nan nan nan nan nan nan nan nan nan nan nan nan nan nan nan nan nan nan nan